Tracking 22454 objects as of 5-Mar-2021
HD Live streaming from Space Station
objects crossing your sky now

SL-12 DEB

Track SL-12 DEB now!
10-day predictions


NORAD ID: 41646
Int'l Code: 2008-067S
Perigee: 1,181.3 km
Apogee: 18,865.7 km
Inclination: 65.0 °
Period: 348.2 minutes
Semi major axis: 16394 km
RCS: Unknown
Launch date: December 25, 2008
Source: Commonwealth of Independent States (former USSR) (CIS)
Launch site: TYURATAM MISSILE AND SPACE COMPLEX (TTMTR)

Note: This is SATELLITE DEBRIS
aabbcc
Your satellite tracking list
Your tracking list is empty




NASA's NSSDC Master Catalog

Two Line Element Set (TLE):
1 41646U 08067S   16297.24897363 -.00005643 +00000+0 -38996+0 0  9992
2 41646  65.0211 341.3509 5393419  68.6926 339.3190  4.13576829005697
Source of the keplerian elements: AFSPC